Time,TemperatureF,DewpointF,PressureIn,WindDirection,WindDirectionDegrees,WindSpeedMPH,WindSpeedGustMPH,Humidity,HourlyPrecipIn,Conditions,Clouds,dailyrainin,SoftwareType,DateUTC
2013-07-09 00:05:00,81.7,75.3,29.97,East,90,2.7,-999.0,81,-99.99,,,0.00,Acu-Link.com,2013-07-09 05:05:00,
2013-07-09 00:21:00,81.5,75.1,29.97,ESE,112,3.2,-999.0,81,-99.99,,,0.00,Acu-Link.com,2013-07-09 05:21:00,
2013-07-09 00:36:00,81.3,74.9,29.97,ESE,112,5.3,-999.0,81,-99.99,,,0.00,Acu-Link.com,2013-07-09 05:36:00,
2013-07-09 00:51:00,81.1,75.1,29.97,ESE,112,2.2,-999.0,82,-99.99,,,0.00,Acu-Link.com,2013-07-09 05:51:00,
2013-07-09 01:06:00,81.1,75.4,29.96,East,90,3.7,-999.0,83,-99.99,,,0.00,Acu-Link.com,2013-07-09 06:06:00,
2013-07-09 01:21:00,81.0,75.3,29.96,ESE,112,2.7,-999.0,83,-99.99,,,0.00,Acu-Link.com,2013-07-09 06:21:00,
2013-07-09 01:36:00,81.0,75.7,29.95,SE,135,2.2,-999.0,84,-99.99,,,0.00,Acu-Link.com,2013-07-09 06:36:00,
2013-07-09 01:51:00,80.8,75.9,29.93,SE,135,1.7,-999.0,85,-99.99,,,0.00,Acu-Link.com,2013-07-09 06:51:00,
2013-07-09 02:06:00,80.4,75.8,29.94,WSW,247,3.2,-999.0,86,-99.99,,,0.00,Acu-Link.com,2013-07-09 07:06:00,
2013-07-09 02:21:00,80.2,75.6,29.95,South,180,2.7,-999.0,86,-99.99,,,0.00,Acu-Link.com,2013-07-09 07:21:00,
2013-07-09 02:37:00,80.1,75.9,29.96,ESE,112,1.1,-999.0,87,-99.99,,,0.00,Acu-Link.com,2013-07-09 07:37:00,
2013-07-09 03:07:00,79.7,75.8,29.92,East,90,0.0,-999.0,88,-99.99,,,0.00,Acu-Link.com,2013-07-09 08:07:00,
2013-07-09 03:22:00,79.5,76.0,29.92,SE,135,0.0,-999.0,89,-99.99,,,0.00,Acu-Link.com,2013-07-09 08:22:00,
2013-07-09 03:37:00,79.3,75.8,29.94,SE,135,0.0,-999.0,89,-99.99,,,0.00,Acu-Link.com,2013-07-09 08:37:00,
2013-07-09 03:52:00,79.0,75.8,29.96,East,90,0.0,-999.0,90,-99.99,,,0.00,Acu-Link.com,2013-07-09 08:52:00,
2013-07-09 04:07:00,78.8,75.6,29.94,ESE,112,0.0,-999.0,90,-99.99,,,0.00,Acu-Link.com,2013-07-09 09:07:00,
2013-07-09 04:23:00,78.6,75.7,29.93,ESE,112,0.0,-999.0,91,-99.99,,,0.00,Acu-Link.com,2013-07-09 09:23:00,
2013-07-09 04:38:00,78.4,75.9,29.96,ESE,112,0.0,-999.0,92,-99.99,,,0.00,Acu-Link.com,2013-07-09 09:38:00,
2013-07-09 04:53:00,78.3,75.8,29.95,East,90,1.7,-999.0,92,-99.99,,,0.00,Acu-Link.com,2013-07-09 09:53:00,
2013-07-09 05:08:00,78.3,75.8,29.93,East,90,0.0,-999.0,92,-99.99,,,0.00,Acu-Link.com,2013-07-09 10:08:00,
2013-07-09 05:23:00,77.7,75.2,29.92,East,90,0.0,-999.0,92,-99.99,,,0.00,Acu-Link.com,2013-07-09 10:23:00,
2013-07-09 05:38:00,77.7,75.2,29.95,ENE,67,0.0,-999.0,92,-99.99,,,0.00,Acu-Link.com,2013-07-09 10:38:00,
2013-07-09 05:53:00,77.5,75.3,29.95,ENE,67,0.0,-999.0,93,-99.99,,,0.00,Acu-Link.com,2013-07-09 10:53:00,
2013-07-09 06:08:00,77.2,75.0,29.93,ENE,67,0.0,-999.0,93,-99.99,,,0.00,Acu-Link.com,2013-07-09 11:08:00,
2013-07-09 06:23:00,77.2,75.0,29.92,ENE,67,0.0,-999.0,93,-99.99,,,0.00,Acu-Link.com,2013-07-09 11:23:00,
2013-07-09 06:39:00,76.8,74.6,29.94,ENE,67,0.0,-999.0,93,-99.99,,,0.00,Acu-Link.com,2013-07-09 11:39:00,
2013-07-09 06:54:00,76.8,74.6,29.96,ENE,67,0.0,-999.0,93,-99.99,,,0.00,Acu-Link.com,2013-07-09 11:54:00,
2013-07-09 07:09:00,77.0,75.1,29.96,ENE,67,0.0,-999.0,94,-99.99,,,0.00,Acu-Link.com,2013-07-09 12:09:00,
2013-07-09 07:24:00,77.5,75.6,29.95,ENE,67,0.0,-999.0,94,-99.99,,,0.00,Acu-Link.com,2013-07-09 12:24:00,
2013-07-09 07:39:00,78.8,77.2,29.94,ENE,67,1.1,-999.0,95,-99.99,,,0.00,Acu-Link.com,2013-07-09 12:39:00,
2013-07-09 07:54:00,79.5,77.9,29.94,East,90,2.7,-999.0,95,-99.99,,,0.00,Acu-Link.com,2013-07-09 12:54:00,
2013-07-09 08:09:00,80.6,78.1,29.94,ENE,67,2.7,-999.0,92,-99.99,,,0.00,Acu-Link.com,2013-07-09 13:09:00,
2013-07-09 08:24:00,81.9,77.6,29.94,ESE,112,2.7,-999.0,87,-99.99,,,0.00,Acu-Link.com,2013-07-09 13:24:00,
2013-07-09 08:39:00,82.0,77.0,29.95,ENE,67,2.2,-999.0,85,-99.99,,,0.00,Acu-Link.com,2013-07-09 13:39:00,
2013-07-09 08:55:00,82.4,76.7,29.95,East,90,4.2,-999.0,83,-99.99,,,0.00,Acu-Link.com,2013-07-09 13:55:00,
2013-07-09 09:10:00,83.5,75.9,29.94,ENE,67,4.7,-999.0,78,-99.99,,,0.00,Acu-Link.com,2013-07-09 14:10:00,
2013-07-09 09:25:00,85.6,75.9,29.95,ENE,67,4.2,-999.0,73,-99.99,,,0.00,Acu-Link.com,2013-07-09 14:25:00,
2013-07-09 09:40:00,88.9,76.9,29.95,ESE,112,3.7,-999.0,68,-99.99,,,0.00,Acu-Link.com,2013-07-09 14:40:00,
2013-07-09 09:55:00,91.8,78.3,29.95,SE,135,2.7,-999.0,65,-99.99,,,0.00,Acu-Link.com,2013-07-09 14:55:00,
2013-07-09 10:10:00,94.6,78.0,29.94,East,90,6.3,-999.0,59,-99.99,,,0.00,Acu-Link.com,2013-07-09 15:10:00,
2013-07-09 10:26:00,91.6,77.2,29.94,ENE,67,3.7,-999.0,63,-99.99,,,0.00,Acu-Link.com,2013-07-09 15:26:00,
2013-07-09 10:41:00,93.4,77.4,29.94,ENE,67,4.2,-999.0,60,-99.99,,,0.00,Acu-Link.com,2013-07-09 15:41:00,
2013-07-09 10:56:00,92.8,77.8,29.94,ENE,67,2.7,-999.0,62,-99.99,,,0.00,Acu-Link.com,2013-07-09 15:56:00,
2013-07-09 11:11:00,96.8,77.9,29.94,ENE,67,4.2,-999.0,55,-99.99,,,0.00,Acu-Link.com,2013-07-09 16:11:00,
2013-07-09 11:26:00,95.4,77.7,29.94,SE,135,3.7,-999.0,57,-99.99,,,0.00,Acu-Link.com,2013-07-09 16:26:00,
2013-07-09 11:41:00,95.0,77.9,29.93,ESE,112,5.8,-999.0,58,-99.99,,,0.00,Acu-Link.com,2013-07-09 16:41:00,
2013-07-09 11:56:00,96.3,78.0,29.94,ESE,112,8.3,-999.0,56,-99.99,,,0.00,Acu-Link.com,2013-07-09 16:56:00,
2013-07-09 12:11:00,95.9,77.6,29.93,ESE,112,6.3,-999.0,56,-99.99,,,0.00,Acu-Link.com,2013-07-09 17:11:00,
2013-07-09 12:26:00,95.9,77.1,29.92,ENE,67,2.7,-999.0,55,-99.99,,,0.00,Acu-Link.com,2013-07-09 17:26:00,
2013-07-09 12:42:00,97.0,76.4,29.92,ESE,112,7.8,-999.0,52,-99.99,,,0.00,Acu-Link.com,2013-07-09 17:42:00,
2013-07-09 12:57:00,98.4,77.1,29.92,SE,135,5.8,-999.0,51,-99.99,,,0.00,Acu-Link.com,2013-07-09 17:57:00,
2013-07-09 13:12:00,96.1,76.7,29.95,ESE,112,6.8,-999.0,54,-99.99,,,0.00,Acu-Link.com,2013-07-09 18:12:00,
2013-07-09 13:27:00,96.6,77.2,29.96,East,90,9.4,-999.0,54,-99.99,,,0.00,Acu-Link.com,2013-07-09 18:27:00,
2013-07-09 13:42:00,98.4,77.1,29.93,SE,135,4.2,-999.0,51,-99.99,,,0.00,Acu-Link.com,2013-07-09 18:42:00,
2013-07-09 13:57:00,98.1,77.4,29.91,East,90,9.4,-999.0,52,-99.99,,,0.00,Acu-Link.com,2013-07-09 18:57:00,
2013-07-09 14:12:00,97.7,75.9,29.93,East,90,5.8,-999.0,50,-99.99,,,0.00,Acu-Link.com,2013-07-09 19:12:00,
2013-07-09 14:27:00,96.1,76.7,29.94,SE,135,8.3,-999.0,54,-99.99,,,0.00,Acu-Link.com,2013-07-09 19:27:00,
2013-07-09 14:42:00,96.4,77.5,29.94,East,90,7.3,-999.0,55,-99.99,,,0.00,Acu-Link.com,2013-07-09 19:42:00,
2013-07-09 14:58:00,97.5,76.9,29.92,ESE,112,7.3,-999.0,52,-99.99,,,0.00,Acu-Link.com,2013-07-09 19:58:00,
2013-07-09 15:13:00,98.2,77.5,29.91,ENE,67,6.8,-999.0,52,-99.99,,,0.00,Acu-Link.com,2013-07-09 20:13:00,
2013-07-09 15:28:00,97.2,76.6,29.92,ESE,112,10.9,-999.0,52,-99.99,,,0.00,Acu-Link.com,2013-07-09 20:28:00,
2013-07-09 15:43:00,97.3,76.7,29.93,East,90,6.8,-999.0,52,-99.99,,,0.00,Acu-Link.com,2013-07-09 20:43:00,
2013-07-09 15:58:00,95.7,76.3,29.92,East,90,13.5,-999.0,54,-99.99,,,0.00,Acu-Link.com,2013-07-09 20:58:00,
2013-07-09 16:13:00,95.2,76.4,29.89,East,90,8.9,-999.0,55,-99.99,,,0.00,Acu-Link.com,2013-07-09 21:13:00,
2013-07-09 16:28:00,94.5,75.8,29.87,ENE,67,8.3,-999.0,55,-99.99,,,0.00,Acu-Link.com,2013-07-09 21:28:00,
2013-07-09 16:43:00,94.5,76.3,29.90,SE,135,4.2,-999.0,56,-99.99,,,0.00,Acu-Link.com,2013-07-09 21:43:00,
2013-07-09 16:58:00,93.9,75.8,29.90,East,90,8.3,-999.0,56,-99.99,,,0.00,Acu-Link.com,2013-07-09 21:58:00,
2013-07-09 17:14:00,93.0,76.5,29.89,ESE,112,7.3,-999.0,59,-99.99,,,0.00,Acu-Link.com,2013-07-09 22:14:00,
2013-07-09 17:29:00,93.9,76.8,29.87,NE,45,8.9,-999.0,58,-99.99,,,0.00,Acu-Link.com,2013-07-09 22:29:00,
2013-07-09 17:44:00,92.3,76.9,29.87,SE,135,4.2,-999.0,61,-99.99,,,0.00,Acu-Link.com,2013-07-09 22:44:00,
2013-07-09 17:59:00,92.5,76.0,29.89,East,90,9.9,-999.0,59,-99.99,,,0.00,Acu-Link.com,2013-07-09 22:59:00,
2013-07-09 18:14:00,91.9,76.0,29.88,ENE,67,10.4,-999.0,60,-99.99,,,0.00,Acu-Link.com,2013-07-09 23:14:00,
2013-07-09 18:29:00,91.2,75.3,29.87,SW,225,6.8,-999.0,60,-99.99,,,0.00,Acu-Link.com,2013-07-09 23:29:00,
2013-07-09 18:45:00,90.5,75.2,29.85,East,90,10.9,-999.0,61,-99.99,,,0.00,Acu-Link.com,2013-07-09 23:45:00,
2013-07-09 19:00:00,89.6,75.3,29.86,ENE,67,9.4,-999.0,63,-99.99,,,0.00,Acu-Link.com,2013-07-10 00:00:00,
2013-07-09 19:15:00,89.6,75.8,29.88,ESE,112,3.2,-999.0,64,-99.99,,,0.00,Acu-Link.com,2013-07-10 00:15:00,
2013-07-09 19:30:00,89.2,75.9,29.88,NE,45,5.8,-999.0,65,-99.99,,,0.00,Acu-Link.com,2013-07-10 00:30:00,
2013-07-09 19:45:00,87.4,75.5,29.88,NNE,22,6.8,-999.0,68,-99.99,,,0.00,Acu-Link.com,2013-07-10 00:45:00,
2013-07-09 20:00:00,86.7,75.7,29.88,ESE,112,3.2,-999.0,70,-99.99,,,0.00,Acu-Link.com,2013-07-10 01:00:00,
2013-07-09 20:15:00,84.9,74.8,29.88,ESE,112,4.7,-999.0,72,-99.99,,,0.00,Acu-Link.com,2013-07-10 01:15:00,
2013-07-09 20:30:00,84.2,74.6,29.87,ESE,112,4.7,-999.0,73,-99.99,,,0.00,Acu-Link.com,2013-07-10 01:30:00,
2013-07-09 20:45:00,83.8,74.6,29.87,ESE,112,7.8,-999.0,74,-99.99,,,0.00,Acu-Link.com,2013-07-10 01:45:00,
2013-07-09 21:01:00,83.5,74.7,29.89,East,90,6.3,-999.0,75,-99.99,,,0.00,Acu-Link.com,2013-07-10 02:01:00,
2013-07-09 21:16:00,83.1,74.7,29.90,East,90,4.2,-999.0,76,-99.99,,,0.00,Acu-Link.com,2013-07-10 02:16:00,
2013-07-09 21:31:00,82.9,74.5,29.89,ENE,67,6.3,-999.0,76,-99.99,,,0.00,Acu-Link.com,2013-07-10 02:31:00,
2013-07-09 21:46:00,82.8,74.4,29.88,ESE,112,8.9,-999.0,76,-99.99,,,0.00,Acu-Link.com,2013-07-10 02:46:00,
2013-07-09 22:01:00,82.8,74.4,29.91,ESE,112,3.2,-999.0,76,-99.99,,,0.00,Acu-Link.com,2013-07-10 03:01:00,
2013-07-09 22:16:00,82.6,74.6,29.92,SSE,157,1.7,-999.0,77,-99.99,,,0.00,Acu-Link.com,2013-07-10 03:16:00,
2013-07-09 22:31:00,82.4,74.4,29.92,SE,135,4.7,-999.0,77,-99.99,,,0.00,Acu-Link.com,2013-07-10 03:31:00,
2013-07-09 22:46:00,82.2,74.3,29.93,SSW,202,3.2,-999.0,77,-99.99,,,0.00,Acu-Link.com,2013-07-10 03:46:00,
2013-07-09 23:02:00,82.0,74.4,29.94,SSE,157,3.7,-999.0,78,-99.99,,,0.00,Acu-Link.com,2013-07-10 04:02:00,
2013-07-09 23:17:00,81.7,74.2,29.95,ESE,112,3.7,-999.0,78,-99.99,,,0.00,Acu-Link.com,2013-07-10 04:17:00,
2013-07-09 23:32:00,81.5,74.3,29.94,South,180,2.2,-999.0,79,-99.99,,,0.00,Acu-Link.com,2013-07-10 04:32:00,
2013-07-09 23:47:00,81.5,74.7,29.95,SSE,157,3.7,-999.0,80,-99.99,,,0.00,Acu-Link.com,2013-07-10 04:47:00,